Edinburg, TX

7:23 AM CST on December 11, 2016 (GMT -0600)
Edinburg

Weather History for KEBG - January, 2014

Change the Weather History Date:

Friday, January 3, 2014

  Actual Average (KMFE) Record (KMFE)
Temperature  
Mean Temperature 49 °F -  
Max Temperature 65 °F 70 °F 89 °F (1982)
Min Temperature 33 °F 49 °F 24 °F (1979)
Degree Days  
Heating Degree Days 16    
Moisture  
Dew Point 39 °F    
Average Humidity 72    
Maximum Humidity 89    
Minimum Humidity 44    
Precipitation  
Precipitation 0.00 in - - ()
Sea Level Pressure  
Sea Level Pressure 30.33 in    
Wind  
Wind Speed 5 mph (NNE)    
Max Wind Speed 12 mph    
Max Gust Speed -    
Visibility 10 miles    
Events      
Averages and records for this station are not official NWS values.
T = Trace of Precipitation, MM = Missing Value Source: NWS Daily Summary

Daily Weather History Graph

Daily Weather History Graph

Search for Another Location

Airport or City:

Trip Planner

Search our weather history database for the weather conditions in past years. The results will help you decide how hot, cold, wet, or windy it might be!

Date:

Astronomy

Jan. 03, 2014 Rise Set
Actual Time 7:21 AM CST 5:53 PM CST
Civil Twilight 6:55 AM CST 6:18 PM CST
Nautical Twilight 6:27 AM CST 6:47 PM CST
Astronomical Twilight 5:58 AM CST 7:15 PM CST
Moon 9:04 AM CST (1/3) 8:45 PM CST (1/3)
Length of Visible Light 11h 22m
Length of Day
10h 32m
Waxing Crescent, 8% of the Moon is Illuminated
Jan 3
Waxing Crescent
Jan 7
First Quarter
Jan 15
Full
Jan 23
Last Quarter
Jan 30
New

Hourly Weather History & Observations

Time (CST) Temp. Windchill Dew Point Humidity Pressure Visibility Wind Dir Wind Speed Gust Speed Precip Events Conditions
12:15 AM 39.4 °F 36.1 °F 33.4 °F 79% 30.44 in 10.0 mi NW 4.6 mph - N/A   Clear
12:35 AM 39.4 °F 36.1 °F 33.4 °F 79% 30.44 in 10.0 mi NW 4.6 mph - N/A   Clear
12:55 AM 38.7 °F 35.2 °F 32.5 °F 79% 30.43 in 10.0 mi NW 4.6 mph - N/A   Clear
1:15 AM 38.3 °F 34.8 °F 32.5 °F 80% 30.43 in 10.0 mi NW 4.6 mph - N/A   Clear
1:35 AM 38.3 °F 33.9 °F 32.4 °F 79% 30.44 in 10.0 mi NW 5.8 mph - N/A   Clear
1:55 AM 37.4 °F 32.8 °F 32.2 °F 81% 30.43 in 10.0 mi NW 5.8 mph - N/A   Clear
2:15 AM 37.4 °F 32.8 °F 32.0 °F 81% 30.43 in 10.0 mi NNW 5.8 mph - N/A   Clear
2:35 AM 36.9 °F 31.4 °F 31.6 °F 81% 30.43 in 10.0 mi NNW 6.9 mph - N/A   Clear
2:55 AM 37.4 °F 32.1 °F 31.6 °F 80% 30.43 in 10.0 mi NNW 6.9 mph - N/A   Clear
3:15 AM 36.0 °F 30.3 °F 31.1 °F 82% 30.43 in 10.0 mi NNW 6.9 mph - N/A   Clear
3:35 AM 35.6 °F 30.7 °F 31.3 °F 84% 30.42 in 10.0 mi NNW 5.8 mph - N/A   Clear
3:55 AM 35.2 °F 31.2 °F 31.1 °F 85% 30.42 in 10.0 mi North 4.6 mph - N/A   Clear
4:15 AM 35.1 °F 32.2 °F 31.1 °F 85% 30.41 in 10.0 mi North 3.5 mph - N/A   Clear
4:35 AM 34.9 °F 32.0 °F 31.1 °F 86% 30.41 in 10.0 mi North 3.5 mph - N/A   Clear
4:55 AM 35.1 °F 31.0 °F 30.9 °F 85% 30.42 in 10.0 mi North 4.6 mph - N/A   Clear
5:15 AM 34.9 °F 30.8 °F 30.7 °F 85% 30.42 in 10.0 mi NW 4.6 mph - N/A   Clear
5:35 AM 34.7 °F 30.6 °F 30.6 °F 85% 30.42 in 10.0 mi NW 4.6 mph - N/A   Clear
5:55 AM 34.7 °F 30.6 °F 30.7 °F 85% 30.42 in 10.0 mi NW 4.6 mph - N/A   Clear
6:15 AM 34.7 °F 29.6 °F 30.6 °F 85% 30.42 in 10.0 mi NW 5.8 mph - N/A   Clear
6:35 AM 33.8 °F 29.6 °F 30.0 °F 86% 30.42 in 10.0 mi NNW 4.6 mph - N/A   Clear
6:55 AM 34.2 °F 31.2 °F 30.2 °F 85% 30.43 in 10.0 mi NW 3.5 mph - N/A   Clear
7:15 AM 34.2 °F 29.0 °F 30.2 °F 85% 30.43 in 10.0 mi NNW 5.8 mph - N/A   Clear
7:35 AM 34.3 °F 29.2 °F 30.2 °F 85% 30.43 in 10.0 mi NNW 5.8 mph - N/A   Clear
7:55 AM 35.1 °F 32.2 °F 31.1 °F 85% 30.43 in 10.0 mi NNW 3.5 mph - N/A   Clear
8:15 AM 36.5 °F 31.8 °F 31.8 °F 83% 30.44 in 10.0 mi NW 5.8 mph - N/A   Clear
8:35 AM 38.3 °F 33.2 °F 32.0 °F 78% 30.44 in 10.0 mi North 6.9 mph - N/A   Clear
8:55 AM 41.2 °F 37.3 °F 32.7 °F 72% 30.45 in 10.0 mi North 5.8 mph - N/A   Clear
9:15 AM 43.2 °F 39.7 °F 33.6 °F 69% 30.45 in 10.0 mi North 5.8 mph - N/A   Clear
9:55 AM 47.5 °F - 34.5 °F 61% 30.46 in 10.0 mi North 4.6 mph - N/A   Clear
10:15 AM 49.1 °F - 35.6 °F 60% 30.46 in 10.0 mi NW 5.8 mph - N/A   Clear
10:35 AM 50.4 °F - 36.3 °F 59% 30.44 in 10.0 mi North 5.8 mph - N/A   Clear
10:55 AM 52.3 °F - 37.4 °F 57% 30.43 in 10.0 mi North 4.6 mph - N/A   Clear
11:15 AM 54.1 °F - 38.5 °F 55% 30.42 in 10.0 mi North 5.8 mph - N/A   Clear
11:35 AM 55.9 °F - 39.2 °F 53% 30.40 in 10.0 mi North 5.8 mph - N/A   Clear
11:55 AM 57.4 °F - 40.3 °F 53% 30.39 in 10.0 mi North 5.8 mph - N/A   Clear
12:15 PM 58.6 °F - 41.2 °F 52% 30.38 in 10.0 mi NNE 4.6 mph - N/A   Clear
12:35 PM 59.2 °F - 41.9 °F 53% 30.36 in 10.0 mi NE 3.5 mph - N/A   Clear
12:55 PM 61.0 °F - 42.1 °F 50% 30.34 in 10.0 mi NNE 4.6 mph - N/A   Clear
1:15 PM 62.2 °F - 42.8 °F 49% 30.31 in 10.0 mi NE 6.9 mph - N/A   Clear
1:35 PM 62.8 °F - 43.0 °F 48% 30.30 in 10.0 mi ENE 4.6 mph - N/A   Clear
1:55 PM 63.5 °F - 42.8 °F 47% 30.29 in 10.0 mi NNE 6.9 mph - N/A   Clear
2:15 PM 64.4 °F - 42.8 °F 45% 30.28 in 10.0 mi ESE 8.1 mph - N/A   Clear
2:35 PM 64.2 °F - 42.8 °F 46% 30.28 in 10.0 mi NE 6.9 mph - N/A   Clear
2:55 PM 64.6 °F - 42.3 °F 44% 30.27 in 10.0 mi ESE 9.2 mph - N/A   Clear
3:15 PM 65.1 °F - 43.0 °F 45% 30.25 in 10.0 mi SE 9.2 mph - N/A   Clear
3:35 PM 64.6 °F - 43.5 °F 46% 30.25 in 10.0 mi ESE 6.9 mph - N/A   Clear
3:55 PM 64.4 °F - 44.2 °F 48% 30.25 in 10.0 mi East 6.9 mph - N/A   Clear
4:15 PM 64.4 °F - 45.1 °F 50% 30.24 in 10.0 mi East 9.2 mph - N/A   Clear
4:35 PM 64.4 °F - 45.5 °F 50% 30.24 in 10.0 mi ESE 10.4 mph - N/A   Clear
4:55 PM 63.5 °F - 45.1 °F 51% 30.23 in 10.0 mi ESE 11.5 mph - N/A   Clear
5:15 PM 62.6 °F - 45.7 °F 54% 30.23 in 10.0 mi ESE 9.2 mph - N/A   Clear
5:35 PM 61.3 °F - 46.4 °F 58% 30.23 in 10.0 mi ESE 8.1 mph - N/A   Clear
5:55 PM 59.4 °F - 46.8 °F 63% 30.22 in 10.0 mi ESE 6.9 mph - N/A   Clear
6:15 PM 57.7 °F - 47.3 °F 68% 30.22 in 10.0 mi ESE 6.9 mph - N/A   Clear
6:35 PM 56.1 °F - 47.3 °F 72% 30.22 in 10.0 mi ESE 5.8 mph - N/A   Clear
6:55 PM 54.9 °F - 47.3 °F 76% 30.22 in 10.0 mi ESE 4.6 mph - N/A   Clear
7:15 PM 54.1 °F - 47.3 °F 78% 30.23 in 10.0 mi ESE 3.5 mph - N/A   Clear
7:35 PM 53.1 °F - 47.3 °F 81% 30.22 in 10.0 mi ESE 3.5 mph - N/A   Clear
7:55 PM 52.9 °F - 47.7 °F 82% 30.22 in 10.0 mi Calm Calm - N/A   Clear
8:15 PM 53.2 °F - 48.2 °F 83% 30.22 in 10.0 mi Calm Calm - N/A   Clear
8:35 PM 52.7 °F - 47.5 °F 82% 30.22 in 10.0 mi ESE 3.5 mph - N/A   Clear
8:55 PM 52.3 °F - 47.5 °F 84% 30.22 in 10.0 mi Calm Calm - N/A   Clear
9:15 PM 52.7 °F - 47.8 °F 84% 30.21 in 10.0 mi Calm Calm - N/A   Clear
9:35 PM 52.2 °F - 47.8 °F 85% 30.21 in 10.0 mi Calm Calm - N/A   Clear
9:55 PM 51.8 °F - 47.5 °F 85% 30.20 in 10.0 mi Calm Calm - N/A   Clear
10:15 PM 51.3 °F - 47.5 °F 87% 30.20 in 10.0 mi Calm Calm - N/A   Clear
10:35 PM 50.9 °F - 47.1 °F 87% 30.19 in 10.0 mi Calm Calm - N/A   Scattered Clouds
10:55 PM 49.5 °F - 45.7 °F 87% 30.19 in 10.0 mi Calm Calm - N/A   Scattered Clouds
11:15 PM 50.2 °F - 46.8 °F 88% 30.18 in 10.0 mi Calm Calm - N/A   Mostly Cloudy
11:35 PM 50.0 °F - 46.6 °F 88% 30.17 in 10.0 mi Calm Calm - N/A   Scattered Clouds
11:55 PM 49.1 °F - 45.9 °F 89% 30.15 in 10.0 mi Calm Calm - N/A   Clear